Regional Weather Roundup
Issued by NWS

Home | Current Version | Previous Version | Graphics & Text | Print | Product List | Glossary On
Versions: 1 2 3 4 5 6 7 8 9 10 11 12 13 14 15 16 17 18 19 20 21 22 23 24 25 26 27 28 29 30 31 32 33 34 35 36 37 38 39 40 41 42 43 44 45 46 47 48 49 50
000
ASUS43 KLMK 250610
RWRKY
KENTUCKY REGIONAL WEATHER ROUNDUP
NATIONAL WEATHER SERVICE LOUISVILLE KY
200 AM EDT THU MAY 25 2017

NOTE "FAIR" INDICATES FEW OR NO CLOUDS BELOW 12,000 FEET
WITH NO SIGNIFICANT WEATHER AND/OR OBSTRUCTIONS TO VISIBILITY.

KYZ001>023-026-027-061>063-070>075-250700-
WESTERN AND SOUTH CENTRAL KENTUCKY

CITY           SKY/WX    TMP DP  RH WIND       PRES   REMARKS
PADUCAH        CLOUDY    58  50  75 W8        29.59S
HENDERSON      CLOUDY    57  55  94 W10       29.55R
OWENSBORO      CLOUDY    58  55  90 W9        29.53S
HOPKINSVILLE   PTCLDY    53  53 100 SW7       29.58S
BOWLING GREEN  CLOUDY    57  54  89 SW8       29.55F
GLASGOW        CLOUDY    55  55 100 SW6       29.54S
$$

KYZ024-025-028>034-038-045-046-053-250700-
NORTH CENTRAL KENTUCKY

CITY           SKY/WX    TMP DP  RH WIND       PRES   REMARKS
LOUISVILLE/SDF CLOUDY    59  56  89 SW9       29.46S
LOUISVILLE/LOU CLOUDY    58  57  97 SW6       29.47S
FORT KNOX      CLOUDY    56  56  99 SW8       29.47S
$$

KYZ035>037-039>044-047>052-055>060-089>105-250700-
NORTHEAST KENTUCKY

CITY           SKY/WX    TMP DP  RH WIND       PRES   REMARKS
LEXINGTON      CLOUDY    56  53  90 SW12      29.47S
COVINGTON      LGT RAIN  59  58  96 SW6       29.40S
FRANKFORT      CLOUDY    57  53  86 SW13G20   29.45S
$$

KYZ054-064>069-076>088-106>120-250700-
SOUTHEAST KENTUCKY

CITY           SKY/WX    TMP DP  RH WIND       PRES   REMARKS
JACKSON        CLOUDY    56  52  86 CALM      29.51R
LONDON         CLOUDY    55  48  77 SW8       29.54S
SOMERSET       CLOUDY    54  50  87 SW6       29.55S
MIDDLESBORO    PTCLDY    55  48  79 CALM      29.57S
MONTICELLO     CLOUDY    54  51  90 W15       29.57S
$$





USA.gov is the U.S. government's official web portal to all federal, state and local government web resources and services.